Weather in Stanko

Russia / Ivanovo Oblast     57°27′09″N   41°55′17″E
temp.,
°C
wind,
m/s
gust,
m/s
humid.,
%
clouds,
%
prec.,
mm/h
press.,
hPa
HPBL,
m
7 march, sun
sun700:00−16sw239743 0.0 101130
03:00−17ssw359722 0.0 1008105
06:00−13s4119472 0.0 1005283
09:00−9s6139386 0.3 1000716
12:00−7s61292100 1.5 996926
15:00−5s61193100 3.0 992848
18:00−4ssw4896100 1.9 991537
21:00−9nw2386100 2.4 99136
8 march, mon
mon800:00−11nw2383100 0.0 99030
03:00−13wnw3383100 0.0 99244
06:00−13w2386100 0.0 99245
09:00−11wnw2389100 0.0 994163
12:00−7nw2378100 0.0 996381
15:00−6nw3584100 0.0 998739
18:00−9nnw3894100 0.1 1001396
21:00−11n399398 0.3 1004425
9 march, tue
tue900:00−15nnw379678 0.1 1007176
03:00−18nnw379772 0.1 1009165
06:00−22nnw359873 0.0 101196
09:00−20n359554 0.0 1013246
12:00−15nnw348970 0.0 1014421
15:00−14nnw358785 0.1 1015625
18:00−18nnw3694100 0.0 1016149
21:00−22n379789 0.1 1019149
10 march, wed
wed1000:00−25n34970 0.0 102177
03:00−28nnw23970 0.0 102261
06:00−29nnw23970 0.0 102451
09:00−25n25930 0.0 1025222
12:00−18nw24790 0.0 1025486
15:00−15wnw35820 0.0 1024574
18:00−18w389318 0.0 1024186
21:00−20wnw499418 0.0 1025220
11 march, thu
thu1100:00−21wnw37950 0.0 1024170
03:00−22wnw37970 0.0 1025144
06:00−22wnw37970 0.0 1025136
09:00−17wnw36910 0.0 1026238
12:00−12w35860 0.0 1025337
15:00−10w35820 0.0 1024415
18:00−14sw22880 0.0 102420
21:00−16s35880 0.0 102480